This demonstration page uses our WeatherBlox Daily Observations layout. Learn more.

Left ArrowRight Arrow

Hourly Observations for March 20, 2018

Temp ( °F °C ) Dew Point ( °F °C ) Humidity (%) Winds ( mph kmh ) Pressure ( in mb ) Visibility ( mi km ) Precip ( " mm )
12:10 am 00:10 Cloudy with Light Rain 39 3.9 36 2.2 89 89 N 16 26 30.00 1016 5 8 0.00 0.03
12:35 am 00:35 Cloudy with Light Rain 38 3.3 35 1.7 89 89 N 20 31 30.06 1018 4 6 0.01 0.25
12:54 am 00:54 Cloudy with Light Rain 38 3.3 36 2.2 93 93 NNW 17 28 30.01 1016 6 10 0.03 0.76
1:25 am 01:25 Cloudy with Light Rain 38 3.3 35 1.7 89 89 N 16 26 30.06 1018 5 8 0.01 0.25
1:54 am 01:54 Cloudy with Light Rain 37 2.8 35 1.7 93 93 N 14 22 30.01 1016 4 6 0.03 0.76
2:02 am 02:02 Cloudy with Light Rain 37 2.8 35 1.7 93 93 N 10 17 30.06 1018 4 6 0.01 0.25
2:54 am 02:54 Cloudy with Light Rain 37 2.8 35 1.7 93 93 N 8 13 30.01 1016 5 8 0.04 1.02
3:54 am 03:54 Cloudy with Light Rain 36 2.2 34 1.1 93 93 NNE 9 15 30.01 1016 5 8 0.01 0.25
4:54 am 04:54 Cloudy with Light Rain 35 1.7 34 1.1 96 96 N 8 13 30.01 1016 5 8 0.01 0.25
5:34 am 05:34 Cloudy with Light Rain 35 1.7 33 0.6 93 93 NNW 9 15 30.06 1018 5 8 0.01 0.25
5:54 am 05:54 Cloudy with Light Rain 35 1.7 33 0.6 93 93 NNW 8 13 30.02 1017 5 8 0.02 0.51
6:54 am 06:54 Cloudy with Light Snow 34 1.1 33 0.6 97 97 WNW 7 11 30.03 1017 4 6 0.02 0.51
7:24 am 07:24 Cloudy with Light Snow 34 1.1 32 0 92 92 NW 8 13 30.06 1018 4 6 0.01 0.25
7:54 am 07:54 Cloudy with Mist and Fog 34 1.1 32 0 92 92 NW 8 13 30.02 1017 5 8 0.01 0.25
8:54 am 08:54 Cloudy 35 1.7 33 0.6 93 93 NW 8 13 30.03 1017 7 11 0.00 0.00
9:20 am 09:20 Cloudy 36 2.2 34 1.1 93 93 NW 12 19 30.09 1019 10 16 0.00 0.00
9:54 am 09:54 Cloudy 36 2.2 33 0.6 89 89 NW 12 19 30.04 1017 10 16 0.00 0.00
10:04 am 10:04 Cloudy 37 2.8 34 1.1 89 89 NNW 10 17 30.09 1019 10 16 0.00 0.00
10:12 am 10:12 Cloudy 37 2.8 34 1.1 89 89 NNW 9 15 30.09 1019 10 16 0.00 0.00
10:23 am 10:23 Cloudy 37 2.8 33 0.6 86 86 NW 10 17 30.09 1019 10 16 0.00 0.00
10:54 am 10:54 Cloudy 37 2.8 33 0.6 86 86 NNW 12 19 30.05 1018 10 16 0.00 0.00
11:54 am 11:54 Cloudy 37 2.8 33 0.6 86 86 NW 13 20 30.06 1018 10 16 0.00 0.03
12:13 pm 12:13 Cloudy 37 2.8 34 1.1 89 89 NW 13 20 30.09 1019 10 16 0.00 0.00
12:20 pm 12:20 Cloudy 38 3.3 34 1.1 86 86 NW 14 22 30.09 1019 10 16 0.00 0.00
12:29 pm 12:29 Cloudy 38 3.3 34 1.1 86 86 NNW 13 20 30.09 1019 10 16 0.00 0.00
12:41 pm 12:41 Cloudy 39 3.9 34 1.1 82 82 NNW 15 24 30.09 1019 10 16 0.00 0.00
12:54 pm 12:54 Cloudy 40 4.4 34 1.1 79 79 NNW 14 22 30.04 1017 10 16 0.00 0.00
1:21 pm 13:21 Cloudy 40 4.4 33 0.6 77 77 NNW 13 20 30.06 1018 10 16 0.00 0.00
1:37 pm 13:37 Cloudy 40 4.4 32 0 73 73 NNW 16 26 30.03 1017 10 16 0.00 0.00
1:51 pm 13:51 Cloudy 39 4 34 1 81 81 NNW 15 24 30.03 1017 10 16 0.00 0.00
1:54 pm 13:54 Cloudy 40 4.4 33 0.6 77 77 NNW 14 22 30.03 1017 10 16 0.00 0.00
2:54 pm 14:54 Cloudy 41 5 32 0 70 70 NNW 13 20 30.02 1017 10 16 0.00 0.00
3:54 pm 15:54 Cloudy 40 4.4 30 -1.1 68 68 NW 14 22 30.02 1017 10 16 0.00 0.00
4:54 pm 16:54 Cloudy 40 4.4 30 -1.1 68 68 NW 9 15 30.03 1017 10 16 0.00 0.00
5:05 pm 17:05 Cloudy 40 4.4 30 -1.1 68 68 NNW 12 19 30.03 1017 10 16 0.00 0.00
5:54 pm 17:54 Cloudy 40 4.4 30 -1.1 68 68 NNW 10 17 30.03 1017 10 16 0.00 0.00
6:54 pm 18:54 Cloudy 38 3.3 29 -1.7 70 70 NNW 10 17 30.05 1018 10 16 0.00 0.00
7:54 pm 19:54 Cloudy 37 2.8 28 -2.2 70 70 NNW 12 19 30.06 1018 10 16 0.00 0.00
8:54 pm 20:54 Cloudy 37 2.8 29 -1.7 73 73 NNW 12 19 30.07 1018 10 16 0.00 0.00
9:54 pm 21:54 Cloudy 36 2.2 29 -1.7 76 76 N 9 15 30.09 1019 10 16 0.00 0.00
10:54 pm 22:54 Cloudy 34 1.1 28 -2.2 79 79 N 8 13 30.11 1020 10 16 0.00 0.00
11:54 pm 23:54 Cloudy 34 1.1 27 -2.8 76 76 N 10 17 30.12 1020 10 16 0.00 0.00

Powered by AerisWeather